Hourly Data Report for September 09, 2017

All times are specified in Local Standard Time (LST). Add 1 hour to adjust for Daylight Saving Time where and when it is observed.

BUCTOUCHE CDA CS
NEW BRUNSWICK

46°25'49.006" N
64°46'05.009" W
35.90 m
8100593
71666
ABT

Download Data

Hourly Data (September 2017)
Hourly Data Report for September 9, 2017
Temp Definition
°C
Dew Point Temp Definition
°C
Rel Hum Definition
%
Wind Dir Definition
10's deg

Wind Spd Definition
km/h
Visibility Definition
km
Stn Press Definition
kPa
Hmdx Definition


Wind Chill Definition


Weather Definition


TIME
00:00 13.4 11.1 86 0 1   101.39     LegendNANA
01:00 11.7 10.1 91 21 3   101.36     LegendNANA
02:00 11.3 10.1 92 25 4   101.37     LegendNANA
03:00 9.6 8.7 94 19 5   101.41     LegendNANA
04:00 10.3 9.4 94 23 9   101.43     LegendNANA
05:00 9.9 8.9 94 25 3   101.45     LegendNANA
06:00 10.1 9.3 95 25 4   101.51     LegendNANA
07:00 11.5 10.6 94 24 4   101.57     LegendNANA
08:00 13.5 12.5 94 28 4   101.61     LegendNANA
09:00 16.5 13.7 84 36 12   101.63     LegendNANA
10:00 17.9 14.2 79 35 11   101.70     LegendNANA
11:00 17.0 13.4 79 36 15   101.69     LegendNANA
12:00 17.7 13.7 77 35 14   101.70     LegendNANA
13:00 18.8 13.3 70 36 18   101.71     LegendNANA
14:00 16.9 12.6 76 36 16   101.73     LegendNANA
15:00 16.9 13.0 78 1 16   101.72     LegendNANA
16:00 17.4 12.6 73 2 15   101.70     LegendNANA
17:00 16.4 12.3 76 2 18   101.75     LegendNANA
18:00 15.4 12.6 83 2 11   101.77     LegendNANA
19:00 14.2 12.1 87 1 10   101.81     LegendNANA
20:00 13.8 12.2 90 36 11   101.85     LegendNANA
21:00 13.6 12.1 91 35 8   101.85     LegendNANA
22:00 13.3 11.8 91 35 6   101.90     LegendNANA
23:00 13.6 11.5 87 1 8   101.88     LegendNANA

Notes on Data Quality.

Legend

  • E = Estimated
  • M = Missing
  • NA = Not Available
  • ‡ = Partner data that is not subject to review by the National Climate Archives
Date modified: